#timestamp,LO_Frequency,Hit,StdDev 
1591567215.5,286047002.3,N
1591567235.4,286046999.7,N
1591567255.2,286047000.0,N
1591567275.1,286047002.3,N
1591567276.0,286047002.3,N
1591567295.8,286046998.1,N
1591567315.6,286046996.9,N
1591567335.5,286046996.5,N
1591567355.3,286046999.6,N
1591567375.1,286046999.0,N
1591567395.9,286047001.2,N
1591567415.7,286047000.8,N
1591567435.6,286046998.4,N
1591567455.4,286046998.9,N
1591567475.2,286046998.8,N
1591567495.1,286046998.6,N
1591567496.0,286046998.6,N
1591567515.8,286046997.3,N
1591567535.6,286046997.3,N
1591567555.5,286046997.6,N
1591567575.3,286046996.7,N
1591567595.2,286046998.4,N
1591567615.9,286046997.2,N
1591567635.7,286046996.8,N
1591567655.6,286046996.7,N
1591567675.4,286046999.6,N
1591567695.2,286046999.3,N
1591567715.1,286046998.4,N
1591567716.0,286046998.4,N
1591567735.8,286046996.5,N
1591567755.7,286046997.0,N
1591567775.5,286046996.7,N
1591567795.3,286046997.4,N
1591567815.2,286046997.4,N
1591567835.9,286046997.3,N
1591567855.7,286046996.8,N
1591567875.6,286046999.1,N
1591567895.4,286046999.2,N
1591567915.2,286046998.2,N
1591567935.1,286046998.5,N
1591567936.0,286046998.5,N
1591567955.8,286046998.2,N
1591567975.7,286046998.1,N
1591567995.5,286046998.5,N
1591568015.3,286047001.1,N
1591568035.2,286047000.6,N
1591568055.0,286046998.3,N
1591568055.9,286046998.3,N
1591568075.8,286046999.0,N
1591568095.6,286046998.2,N
1591568115.4,286046998.6,N
1591568135.3,286046998.1,N
1591568155.1,286046998.2,N
1591568175.8,286046998.1,N
1591568195.7,286047000.9,N
1591568215.5,286047000.9,N
1591568235.4,286047000.6,N
1591568255.2,286046999.0,N
1591568275.0,286046998.2,N
1591568275.9,286046998.2,N
1591568295.8,286046998.7,N
1591568315.6,286047001.0,N
1591568335.4,286046999.3,N
1591568355.3,286046999.6,N
1591568375.1,286046996.6,Y
1591568395.9,286047000.9,P
1591568415.7,286047000.2,N
1591568435.5,286047000.0,N
1591568455.4,286047000.0,N
1591568475.2,286047000.0,N
1591568495.0,286046998.6,N
1591568495.9,286046998.6,N
1591568515.8,286047001.1,N
1591568535.6,286047000.9,N
1591568555.5,286046998.7,N
1591568575.3,286046998.9,N
1591568595.1,286047000.6,N
1591568615.9,286047000.3,N
1591568635.7,286047002.8,Y
1591568655.6,286047000.1,P
1591568675.4,286047001.6,P
1591568695.2,286047002.6,P
1591568715.1,286047002.8,N
1591568716.0,286047002.8,N
1591568735.8,286047000.2,N
1591568755.6,286047000.1,N
1591568775.5,286046999.7,N
1591568795.3,286047002.1,N
1591568815.2,286047002.2,N
1591568835.9,286047002.8,N
1591568855.7,286047000.5,N
1591568875.6,286047002.7,N
1591568895.4,286047002.2,N
1591568915.2,286047003.8,Y
1591568935.1,286047001.3,P
1591568936.0,286047001.3,P
1591568955.8,286047004.3,P
1591568975.7,286047003.0,N
1591568995.5,286047003.3,N
1591569015.3,286047002.0,N
1591569035.2,286047002.6,N
1591569055.9,286047001.7,N
1591569075.7,286047002.4,N
1591569095.6,286046999.9,N
1591569115.4,286047002.5,N
1591569135.2,286047001.6,N
1591569155.1,286046999.7,N
1591569156.0,286046999.7,N
1591569175.8,286047000.3,N
1591569195.7,286047000.8,N
1591569215.5,286047000.8,N
1591569235.3,286046999.4,N
1591569255.2,286046997.3,N
1591569275.0,286046996.8,N
1591569275.9,286046996.8,N
1591569295.7,286046998.9,N
1591569315.6,286047000.9,N
1591569335.4,286047000.8,N
1591569355.3,286046999.7,N
1591569375.1,286047002.2,N
1591569376.0,286047002.2,N
1591569395.8,286047002.5,N
1591569415.7,286047001.3,N
1591569435.5,286047004.3,N
1591569455.3,286047001.4,N
1591569475.2,286047006.0,Y
1591569495.0,286047002.1,P
1591569495.9,286047002.1,P
1591569515.8,286046999.7,N
1591569535.6,286047001.7,N
1591569555.4,286047001.9,N
1591569575.3,286047002.0,N
1591569595.1,286046999.8,N
1591569615.9,286047000.0,N
1591569635.7,286047000.5,N
1591569655.5,286047001.0,N
1591569675.4,286046999.9,N
1591569695.2,286047002.5,N
1591569715.0,286047002.0,N
1591569715.9,286047002.0,N
1591569735.8,286047004.3,Y
1591569755.6,286047002.1,P
1591569775.5,286047002.0,P
1591569795.3,286047002.1,P
1591569815.1,286047002.4,Y
1591569835.9,286046998.9,P
1591569855.7,286046999.2,N
1591569875.5,286046996.6,N
1591569895.4,286046999.5,N
1591569915.2,286046999.2,N
1591569935.1,286046996.9,N
1591569936.0,286046996.9,N
1591569955.8,286047001.1,N
1591569975.6,286046998.4,N
1591569995.5,286046998.3,N
1591570015.3,286046999.4,N
1591570035.1,286046999.4,N
1591570055.9,286047000.8,N
1591570075.7,286047001.2,N
1591570095.6,286047001.1,N
1591570115.4,286047000.2,N
1591570135.2,286047000.3,N
1591570155.1,286047000.0,N
1591570156.0,286047000.0,N
1591570175.8,286047000.1,N
1591570195.7,286047002.8,N
1591570215.5,286047000.0,N
1591570235.3,286047000.6,N
1591570255.2,286046999.7,N
1591570275.0,286046999.8,N
1591570275.9,286046999.8,N
1591570295.7,286047000.2,N
1591570315.6,286047001.2,N
1591570335.4,286046998.7,N
1591570355.3,286046999.8,N
1591570375.1,286047000.6,N
1591570376.0,286047000.6,N
1591570395.8,286046998.1,N
1591570415.7,286046998.2,N
1591570435.5,286046998.7,N
1591570455.3,286047000.3,N
1591570475.2,286047002.3,N
1591570495.0,286047002.8,N
1591570495.9,286047002.8,N
1591570515.8,286047002.7,N
1591570535.6,286047002.3,N
1591570555.4,286047000.5,N
1591570575.3,286047000.3,N
1591570595.1,286047000.3,N
1591570615.8,286047001.0,N
1591570635.7,286047001.1,N
1591570655.5,286046998.1,N
1591570675.4,286046998.9,N
1591570695.2,286047000.6,N
1591570715.0,286047001.2,N
1591570715.9,286047001.2,N
1591570735.8,286047001.2,N
1591570755.6,286046998.3,N
1591570775.4,286047001.0,N
1591570795.3,286047000.8,N
